544  
AXUS43 KGID 271602  
MISGRI  
 
GID CWA HOURLY WEATHER ROUNDUP  
NATIONAL WEATHER SERVICE HASTINGS NE  
1100 AM CDT FRI MAY 27 2016  
 
NOTE: "FAIR" INDICATES FEW OR NO CLOUDS BELOW 12,000 FEET WITH NO  
SIGNIFICANT WEATHER AND/OR OBSTRUCTIONS TO VISIBILITY.  
   
..SOUTH CENTRAL NEBRASKA
 
 
 
CITY SKY/WX TMP DP RH WIND PRES REMARKS  
GRAND ISLAND LGT RAIN 63 57 81 SE5 29.79R  
HASTINGS LGT RAIN 61 59 93 E7 29.78F  
KEARNEY CLOUDY 61 55 82 E12 29.80R  
ORD CLOUDY 70 54 56 NW6 29.74F  
YORK LGT RAIN 63 59 88 SE7 29.80R  
AURORA LGT RAIN 64 60 90 SE8 29.80R  
LEXINGTON CLOUDY 60 55 83 E7 29.78R  
HOLDREGE LGT RAIN 58 56 92 E9 29.79R  
HEBRON CLOUDY 64 58 79 CALM 29.78R  
   
..NEBRASKA PANHANDLE
 
 
 
CITY SKY/WX TMP DP RH WIND PRES REMARKS  
CHADRON CLOUDY 61 45 55 NW3 29.87R  
ALLIANCE RAIN 51 50 96 E7 29.87S FOG  
SCOTTSBLUFF CLOUDY 58 44 60 N7 29.87S  
SIDNEY CLOUDY 52 49 89 NE13 29.85S  
   
..WESTERN AND NORTH CENTRAL NEBRASKA
 
 
 
CITY SKY/WX TMP DP RH WIND PRES REMARKS  
VALENTINE LGT RAIN 57 54 89 NW6 29.84R  
AINSWORTH CLOUDY 59 54 84 NW8 29.83S  
ONEILL CLOUDY 66 57 72 CALM 29.78S  
BROKEN BOW CLOUDY 66 56 70 NW10 29.75F  
IMPERIAL CLOUDY 57 53 86 NE12 29.78S  
NORTH PLATTE CLOUDY 61 54 77 NE10 29.79F  
MCCOOK CLOUDY 59 54 83 NE10 29.76S  
   
..EASTERN NEBRASKA
 
 
 
CITY SKY/WX TMP DP RH WIND PRES REMARKS  
NORFOLK MOSUNNY 68 57 68 SE6 29.75F  
SO SIOUX CITY CLOUDY 67 59 75 CALM 29.76F  
TEKAMAH PTSUNNY 70 57 63 VRB3 29.74F  
COLUMBUS PTSUNNY 68 55 64 E7 29.77F  
ALBION MOSUNNY 69 55 61 SE5 29.76S  
OMAHA EPPLEY PTSUNNY 70 60 70 CALM 29.73F  
MILLARD SUNNY 69 60 72 SE3 29.75F  
LINCOLN PTSUNNY 69 58 67 VRB6 29.76F  
NEBRASKA CITY PTSUNNY 67 62 83 SE5 29.77R  
BEATRICE CLOUDY 66 60 80 CALM 29.77R  
FALLS CITY CLOUDY 68 63 84 S8 29.76R  
   
..NORTHERN KANSAS
 
 
 
CITY SKY/WX TMP DP RH WIND PRES REMARKS  
GOODLAND CLOUDY 57 52 83 E8 29.74R  
HILL CITY CLOUDY 59 57 93 NE9 29.73S FOG  
NORTON CLOUDY 57 54 88 NE10 29.75S FOG  
PHILLIPSBURG CLOUDY 61 59 94 NE10 29.76S  
SMITH CENTER CLOUDY 59 55 88 E12 29.77S  
BELOIT CLOUDY 63 57 82 E9 29.75F  
HAYS CLOUDY 34 N/A N/A SE10 29.72S WCI 26  
RUSSELL CLOUDY 63 60 90 SE13 29.71S  
CONCORDIA CLOUDY 63 59 87 SE6 29.76S  
SALINA CLOUDY 69 60 73 E9 29.73R  
TOPEKA MOSUNNY 67 60 78 S7 29.74F  
 
CLICK HERE TO GO TO PREVIOUS BULLETINS.

The Nexlab NE Page
The Nexlab KS Page Main Text Page